STARLINK-2370 (47910 NORAD) Tracking and Keplerian Element Data

This shows tracking and keplerian element data for the satellite.

Feedback or suggestion? Click here.




ElementValue
Catalog47910
NameSTARLINK-2370
Epoch Orbit197
Epoch Day173.91668981
Epoch Year2021
RAAN79.4117
Inclination53.0485
Eccentricity0.000132
Argument of Perigee69.0764
Mean Anonmoly149.4318
Mean Motion15.51409757
Decay Rate-0.01083814
L11 47910U 21021BC 21173.91668981 -.01083814 00000-0 -19956-1 0 9997
L22 47910 53.0485 79.4117 0001320 69.0764 149.4318 15.51409757 1976

Live tracking and technical data element details for STARLINK-2370 (NORAD 47910). STARLINK-2370 can be tracked NOW for your location showing map with azimuth and elevation plus other details from your city location.

Track the satellite on the map from your city or location and see movement details for azimuth, elevation, latitude, longitude, range, height, and movement on the map or in text.







IsCatalogInMostPopularTable: catalog: 47910, numindb: 47
Update: records affected: 1



GetName: 47910 STARLINK-2370

Hit Count: updated at: Thu, 24 Jun 2021 02:32:44 GMT